Location: Newark
(30.0333°N, 31.2167°E)
Time: 01:49:59
(UTC+00:00)

Transit 4A - Visible Passes

Search period start: 26 January 2020 00:00
Search period end: 05 February 2020 00:00
Orbit: 872 x 973 km, 66.8° (Epoch: 25 January)

Date Brightness Start Highest point End Pass type
(mag) Time Alt. Az. Time Alt. Az. Time Alt. Az.
26 Jan 9.9 02:41:53 10° SSE 02:46:52 27° ESE 02:51:45 10° NE visible
27 Jan 9.0 02:50:20 10° S 02:56:03 43° ESE 03:01:38 10° NE visible
28 Jan 8.1 02:59:14 10° SSW 03:05:17 69° ESE 03:11:12 10° NNE visible
29 Jan 10.7 01:27:11 10° ESE 01:28:56 11° ESE 01:30:40 10° E visible
29 Jan 7.7 03:08:29 10° SSW 03:14:34 77° WNW 03:20:32 10° NNE visible
30 Jan 10.1 01:35:08 14° SE 01:38:01 20° ESE 01:42:09 10° ENE visible
30 Jan 8.0 03:18:57 14° SW 03:23:56 48° WNW 03:29:41 10° NNE visible
31 Jan 9.4 01:47:18 31° ESE 01:47:18 31° ESE 01:52:20 10° NE visible
31 Jan 8.5 03:30:58 24° W 03:33:22 31° WNW 03:38:36 10° N visible
01 Feb 9.0 01:58:14 37° ENE 01:58:14 37° ENE 02:02:05 10° NE visible
01 Feb 9.0 03:41:51 20° WNW 03:42:54 21° NW 03:47:14 10° N visible
02 Feb 9.1 02:08:37 31° NNE 02:08:37 31° NNE 02:11:34 10° NNE visible
02 Feb 9.4 03:52:12 13° NW 03:52:32 13° NW 03:55:15 10° NNW visible
03 Feb 9.4 02:18:39 23° NNE 02:18:39 23° NNE 02:20:50 10° NNE visible
04 Feb 9.7 02:28:27 17° N 02:28:27 17° N 02:29:53 10° N visible
